Vorticity
3 3 3 3 4 4 4 4 4 4 4 5 5 5 5 5 5 5 5 6 7 7 7 6 6 7 7 6 8 7 7 8 8 8 7 6 7 8 11 9 9 11 8 8 8 7 8 13 21 14 -2 -1 0 5 23 32 28 20 16 11 10 13 -2 -3 16 12 6 7 7 8 7 8 9 11 16 15 9 7 6 4 4 6 14 12 7 8 9 9
2 2 2 3 3 4 4 4 4 4 4 4 5 5 5 5 5 5 5 6 6 7 7 6 6 6 7 7 7 7 6 8 9 9 7 6 6 8 10 8 9 12 9 8 6 7 10 11 14 4 -7 0 3 -3 8 24 24 11 9 13 14 18 5 -9 3 15 14 9 8 11 7 3 6 12 30 39 24 10 8 4 -2 5 20 15 9 16 13 8
1 1 1 2 3 4 4 4 4 4 4 4 4 5 5 6 5 5 5 5 6 6 7 7 6 6 7 6 7 8 6 6 9 9 8 6 8 10 9 8 9 12 11 10 8 10 8 1 4 6 3 5 3 -3 4 17 17 3 -1 8 17 23 20 4 2 11 17 14 9 9 7 8 9 8 24 41 31 14 9 9 4 8 17 10 11 21 19 11
0 1 1 2 3 4 4 4 4 4 4 4 4 4 4 5 6 6 5 5 5 6 7 7 7 5 6 6 6 8 6 6 8 8 9 8 9 9 8 7 8 10 10 10 11 15 12 2 3 6 4 5 7 4 2 5 8 5 0 10 19 15 14 11 3 6 17 20 11 8 10 10 5 -1 6 17 16 12 12 14 10 11 15 13 14 16 15 12
1 2 3 4 5 5 6 5 5 5 5 5 4 4 4 5 6 7 6 5 5 5 6 7 7 6 5 7 6 8 7 6 7 7 8 10 8 6 7 6 7 9 9 10 12 15 8 1 5 4 1 5 9 6 -1 -5 1 4 -0 4 8 3 13 16 2 5 24 26 12 7 10 7 1 3 14 14 9 10 13 16 12 9 10 15 17 11 10 12
3 4 5 6 7 6 7 6 6 6 6 5 5 5 4 4 5 7 7 6 5 5 6 6 7 6 5 7 6 7 7 6 7 8 8 10 8 5 7 7 6 8 8 10 11 14 8 1 5 4 2 4 2 5 3 -2 4 8 1 -2 -3 -1 11 13 4 7 18 18 8 2 5 5 5 13 23 19 13 11 11 15 15 9 5 10 16 13 13 15
6 6 7 7 7 7 7 7 7 6 6 6 5 5 4 5 5 6 8 8 6 5 6 6 7 6 5 6 7 6 7 7 7 7 8 8 9 8 8 8 7 6 8 9 8 13 15 11 10 5 6 6 -2 2 1 -4 6 11 5 -1 -4 -2 4 6 6 5 4 9 8 2 3 5 7 14 17 14 15 14 11 18 19 11 7 7 8 12 14 12
7 7 7 7 7 7 7 6 6 6 6 6 5 5 5 6 6 6 8 9 7 5 5 6 6 7 6 5 7 7 7 8 7 7 8 6 7 9 9 8 6 6 7 6 5 8 11 16 20 11 6 7 3 3 2 -3 1 6 9 5 -4 1 11 10 8 4 0 5 3 -1 6 8 6 10 7 1 5 8 8 18 21 10 7 8 4 9 13 9
7 7 7 6 6 6 6 6 6 6 6 6 6 6 6 7 7 7 8 10 9 6 5 6 6 7 7 5 5 7 7 8 8 7 7 7 6 8 8 8 6 7 7 5 4 5 5 11 18 15 7 9 11 8 8 7 1 1 10 9 2 4 10 10 5 3 8 11 7 4 10 9 3 9 8 -3 -2 5 8 12 15 11 9 10 8 9 10 10
6 6 6 6 6 6 6 6 6 7 6 7 7 7 8 8 9 9 9 10 10 8 5 5 6 5 7 7 4 6 7 6 8 7 6 7 6 6 7 8 8 8 7 6 5 6 7 8 10 14 12 13 17 13 11 11 7 11 19 18 17 5 -5 4 3 1 8 9 10 11 10 7 -1 6 10 2 4 11 12 11 9 10 11 9 9 10 9 10
6 6 6 6 6 6 7 6 7 7 7 7 7 8 8 8 9 9 9 9 10 10 6 5 5 4 6 7 5 6 7 7 9 8 7 7 6 6 6 7 8 7 8 7 6 7 9 8 5 6 10 14 16 12 8 5 4 11 15 13 18 6 -6 6 6 -0 3 -2 8 15 8 7 3 6 9 3 9 12 11 12 6 7 12 10 9 9 7 8
6 6 6 7 7 7 7 7 7 8 8 8 8 8 7 7 8 8 8 8 9 10 8 5 5 5 5 7 6 5 5 7 10 10 7 7 7 7 6 6 6 7 8 7 7 7 7 8 4 3 9 15 15 9 7 8 7 5 -0 -1 6 3 -5 2 1 -0 4 -3 1 10 7 8 5 7 7 -2 5 8 9 14 7 5 11 10 7 8 7 5
7 7 8 8 8 8 8 7 7 7 7 7 7 7 7 6 6 7 8 7 7 9 9 7 4 4 4 5 6 5 5 5 9 12 10 7 7 7 6 6 6 6 7 6 8 8 7 7 5 4 5 13 16 7 6 11 11 4 -3 -0 6 8 3 1 -2 -7 -1 1 1 10 15 8 3 8 5 -3 2 8 10 11 8 7 8 7 5 5 5 3
8 8 8 8 7 7 7 6 6 6 6 6 5 6 6 5 5 5 6 6 7 7 8 8 6 4 4 5 5 4 5 4 6 10 11 9 7 7 6 6 7 7 6 6 7 8 9 7 6 5 1 6 9 1 2 8 10 5 2 8 6 7 10 1 4 10 7 3 3 11 10 3 10 16 7 1 4 9 11 6 7 11 8 6 3 3 5 5
6 6 6 6 6 5 5 5 5 5 5 5 5 5 5 5 4 4 5 6 7 7 7 8 7 5 3 5 4 4 5 4 6 8 9 10 8 6 6 6 6 6 7 6 6 7 9 8 7 8 4 5 3 -3 -3 -3 2 1 2 15 1 -5 7 -7 -4 20 16 3 4 11 8 6 17 18 9 5 1 5 11 9 11 13 9 9 8 7 9 9
5 5 5 5 5 5 5 4 4 4 4 4 4 4 4 5 4 4 4 4 5 7 8 7 7 6 5 5 5 4 3 3 7 7 8 11 10 7 5 6 6 6 7 6 7 7 7 9 8 9 8 7 3 -0 -2 -3 3 -3 -1 21 9 -0 16 -1 -17 -6 0 3 6 8 8 2 5 16 18 4 -5 4 11 9 10 7 5 12 14 12 13 12
4 4 4 4 4 4 4 4 4 4 4 4 4 4 4 4 5 4 4 4 5 5 7 7 5 6 6 5 5 3 2 2 5 6 8 12 12 9 7 6 5 6 7 6 7 7 7 9 8 8 7 8 9 4 -2 -2 4 -1 1 15 4 -5 5 1 -11 -10 -4 0 -3 -2 3 -6 -7 17 24 4 -4 8 14 10 6 5 7 12 15 15 14 13
4 4 4 4 3 4 4 4 4 4 4 4 3 4 4 4 4 5 4 4 4 4 7 7 5 6 7 5 4 3 3 3 4 4 5 9 12 11 9 7 6 6 5 6 7 6 7 7 7 8 6 8 11 5 -1 -4 0 5 8 8 -3 -8 0 0 -6 -4 1 1 -2 2 6 -2 -2 16 19 6 3 9 14 11 5 10 12 11 13 13 13 12
4 5 4 5 5 4 5 5 5 5 5 5 5 4 4 4 4 4 4 4 3 4 6 8 8 7 7 6 4 3 4 3 3 3 4 6 9 10 10 9 7 6 5 6 7 6 7 7 7 7 4 5 7 8 9 3 3 7 11 14 8 5 12 13 6 5 7 8 6 2 -1 -2 6 17 12 2 3 9 15 10 6 12 10 8 11 10 10 9
5 6 5 5 6 5 5 5 5 5 5 5 5 6 5 5 5 5 6 4 3 5 5 7 9 6 4 5 5 5 5 3 3 4 4 5 5 6 10 11 9 9 7 6 6 6 5 7 10 9 6 6 8 10 7 2 5 9 10 12 10 8 8 8 10 5 3 8 -0 -9 1 11 18 22 12 3 4 9 19 15 9 8 2 5 11 8 7 6
6 6 5 5 4 4 4 3 3 3 3 4 3 4 5 4 4 5 7 6 3 6 5 3 5 5 3 4 6 8 7 5 5 3 4 4 3 6 9 8 9 11 11 8 7 5 3 3 7 10 8 7 8 8 4 10 16 15 14 11 9 12 2 -2 6 1 5 16 -1 -9 10 18 18 16 8 6 5 8 20 17 7 6 5 10 12 6 5 6
4 4 4 3 3 3 3 3 3 3 3 4 4 4 3 3 4 4 6 8 4 4 5 5 6 5 5 3 5 9 9 7 4 3 6 5 4 7 5 1 7 13 13 10 8 6 4 4 4 6 8 8 9 6 6 12 11 8 13 12 12 9 -7 -10 -2 -2 7 13 2 2 11 8 5 3 3 7 4 6 17 11 4 9 11 12 9 5 6 7
4 4 4 4 4 5 5 5 5 5 6 6 6 6 5 5 5 4 5 8 7 5 5 7 7 6 5 3 4 6 5 4 3 4 6 4 4 7 2 1 6 10 12 11 10 8 4 6 7 6 10 13 9 3 3 4 3 6 9 12 15 9 2 2 -6 -10 -1 0 3 7 4 3 3 -2 1 10 8 8 12 7 7 14 17 12 7 7 9 6
5 5 6 6 6 7 7 7 6 6 6 6 6 4 4 5 4 6 5 6 10 8 4 4 5 6 5 4 4 3 2 3 6 7 6 3 4 4 2 6 7 6 9 9 12 13 7 8 11 8 11 15 11 6 7 6 5 7 6 11 14 1 6 15 -5 -12 -2 -1 3 5 4 15 16 4 2 6 9 11 9 7 10 13 14 16 15 14 13 8
6 7 8 8 7 7 6 5 4 5 5 4 4 2 2 4 4 6 5 5 8 6 4 5 4 4 5 5 4 4 6 8 8 6 5 4 3 2 4 7 6 4 7 6 10 15 11 9 9 7 9 12 14 12 9 6 5 7 6 11 13 -1 3 12 -4 -10 2 7 6 5 13 21 13 4 5 7 8 9 9 9 10 7 5 13 17 14 12 8
6 6 7 7 6 5 4 4 2 3 5 4 3 1 2 5 4 5 5 4 3 4 8 10 9 8 7 6 7 8 8 6 5 4 5 4 1 2 6 7 4 6 7 2 6 12 10 9 8 9 10 9 11 11 7 5 5 9 10 8 8 5 7 9 -0 -7 -1 10 12 8 7 8 4 2 4 10 7 5 9 6 2 5 5 7 8 8 11 9
6 5 5 5 5 3 3 3 1 3 5 4 3 3 4 5 5 4 4 4 4 6 10 10 10 10 8 6 6 8 6 4 5 4 2 1 0 3 5 5 3 4 4 0 4 9 7 7 9 11 12 9 9 8 6 6 2 4 11 9 4 6 10 8 6 3 -0 5 11 8 -1 -6 4 10 3 2 3 4 9 2 -2 6 7 1 -0 4 11 11
5 4 4 4 4 4 4 3 4 5 4 4 5 5 6 7 6 5 5 5 5 5 5 6 9 9 7 7 7 7 6 5 5 4 2 2 4 6 4 3 2 2 3 4 7 7 4 5 6 6 9 11 12 11 8 7 5 6 9 8 3 3 8 7 8 11 9 11 15 17 11 -0 7 20 6 -5 4 9 6 2 2 6 4 -1 2 6 8 10
6 6 6 6 4 4 5 5 5 6 5 6 6 6 7 6 6 6 5 6 7 7 5 5 8 6 5 7 7 5 4 5 5 4 5 5 5 5 4 4 4 4 4 5 7 5 3 5 3 1 4 8 10 11 10 7 9 11 6 0 -1 -1 5 9 5 2 5 13 15 14 18 13 10 17 8 -5 2 7 2 2 5 4 1 -0 3 7 8 10
8 8 8 9 8 7 7 8 7 7 7 6 6 6 6 5 6 5 5 7 8 7 5 4 6 7 6 6 7 6 7 8 8 7 6 6 5 4 5 6 6 8 6 2 5 6 2 -0 1 2 4 6 8 9 10 9 8 10 4 -1 0 1 8 17 12 4 5 8 5 4 12 14 8 10 7 0 2 4 4 5 5 5 5 4 5 6 8 8
8 8 8 10 9 8 8 9 9 9 8 8 7 7 6 6 5 3 6 11 9 8 10 9 8 8 8 5 3 4 6 8 7 7 7 7 6 5 7 9 7 5 3 1 4 5 0 0 3 5 4 4 7 9 10 10 8 6 4 3 4 2 4 10 9 6 6 2 -2 3 9 8 6 7 5 4 4 3 2 2 1 4 5 4 4 7 8 6
6 5 5 6 7 6 5 7 8 7 7 8 7 6 6 5 3 4 11 16 13 11 12 10 5 4 4 2 2 2 4 7 9 9 9 8 8 7 7 9 8 6 6 7 8 4 3 6 6 5 5 4 6 9 11 13 11 7 4 4 5 3 2 3 6 6 5 0 -2 9 17 12 6 4 2 4 6 3 -1 -4 -4 0 3 2 4 7 7 4
4 2 1 2 4 5 6 8 9 8 8 7 6 6 5 3 4 9 12 13 13 13 13 9 5 5 4 4 7 8 6 7 9 9 10 9 9 9 8 6 7 8 7 6 6 6 8 12 12 10 8 6 5 6 9 13 14 11 8 7 6 5 4 3 6 7 6 2 -2 4 12 11 8 7 3 1 3 6 6 2 0 -1 -3 -5 -2 0 1 1
7 6 6 6 6 7 9 12 13 12 10 9 7 6 2 3 9 12 10 10 11 11 10 7 7 9 9 9 11 11 11 11 10 10 12 11 8 9 8 6 4 3 4 7 11 12 12 12 16 16 10 9 8 5 5 9 9 8 6 5 4 4 4 3 3 6 7 4 1 0 -0 1 7 9 8 6 4 3 5 5 5 4 1 -1 -2 -1 4 8
9 10 12 11 9 10 12 13 13 13 11 11 9 6 7 12 15 13 11 9 7 5 4 5 10 13 13 14 12 12 14 14 12 10 9 10 11 10 9 7 5 3 6 13 12 6 3 4 13 17 13 16 17 10 7 7 6 9 10 6 5 6 7 5 3 4 8 7 6 6 2 -1 3 6 7 9 5 -0 0 1 1 1 4 5 5 7 11 12
8 12 14 11 10 13 14 13 13 12 11 10 7 7 13 15 13 12 12 11 9 7 6 7 9 9 9 11 12 13 13 11 12 11 7 8 9 9 11 10 8 5 6 10 7 1 4 5 5 8 11 18 23 17 10 7 6 7 6 6 11 14 14 14 9 5 7 9 8 8 6 2 3 6 8 7 3 -1 -0 1 -0 -1 0 4 9 12 8 3
9 13 13 9 10 13 13 12 12 11 11 9 8 11 14 12 11 12 12 12 11 10 9 7 5 6 8 9 10 11 8 5 9 11 10 8 5 4 8 8 6 4 4 9 6 2 9 12 3 1 8 16 22 19 11 7 5 1 -0 4 10 12 12 13 11 5 3 5 7 8 9 8 6 5 5 7 6 3 0 1 4 4 2 3 4 3 -0 0
12 12 9 8 11 11 10 11 11 10 11 10 11 13 13 11 11 11 10 9 9 8 8 9 9 9 9 8 9 10 8 6 5 6 6 5 5 5 4 4 6 5 7 9 7 3 8 12 5 -3 3 15 20 16 11 8 7 7 9 7 1 3 7 10 11 9 5 5 7 9 8 9 11 8 4 5 5 5 3 2 3 3 0 -0 -2 -1 7 9
13 13 11 11 13 12 11 13 13 13 12 12 13 13 12 12 11 10 9 9 9 9 8 9 10 8 7 8 8 9 9 7 5 6 5 2 4 5 2 1 2 3 6 4 3 6 6 10 10 2 4 16 16 7 5 10 11 11 13 10 2 1 4 7 9 9 8 6 6 9 7 6 12 16 13 8 4 3 4 2 2 -0 -2 4 11 15 17 12
14 13 12 12 13 13 13 13 12 11 10 9 9 9 7 8 8 8 8 8 8 8 8 10 10 8 8 9 7 7 8 6 6 7 5 1 4 8 6 5 2 2 5 2 -0 -0 -5 -3 3 3 4 6 4 3 7 13 11 4 3 10 13 9 4 5 8 7 7 6 4 6 4 1 9 16 16 14 11 6 7 9 9 6 6 12 18 16 11 6
12 12 10 9 9 8 6 6 5 5 5 3 3 3 2 3 3 4 5 5 6 6 6 7 7 7 8 8 8 8 7 6 6 6 5 5 11 15 10 4 3 5 6 8 6 -1 -10 -12 -8 -2 1 -0 3 10 9 9 11 6 1 3 8 13 12 8 5 5 7 5 5 9 2 -6 4 15 12 9 11 9 10 13 13 13 14 12 7 5 3 2
9 9 8 7 6 5 4 3 1 1 0 -0 1 2 0 0 1 1 4 5 6 7 7 6 8 9 8 6 7 8 6 4 5 6 6 8 12 9 2 -1 3 5 4 4 2 -0 0 1 1 1 -3 -5 5 11 7 7 9 8 6 3 -0 3 9 7 -1 2 10 11 9 7 -2 -7 3 13 9 1 2 6 7 8 8 8 8 4 3 8 9 5
9 7 6 8 8 7 5 1 -1 -1 -1 -1 1 1 1 2 1 0 3 6 7 8 9 8 9 9 6 4 5 5 4 2 4 6 6 7 9 4 -2 1 6 7 6 2 -4 -3 3 5 3 -0 -7 -8 -1 4 12 18 10 4 7 6 1 -1 3 6 5 5 10 18 19 4 -10 -6 4 9 7 -0 -2 5 7 4 3 3 2 3 10 16 16 13
8 7 6 7 6 4 2 -1 -1 0 -0 -1 -0 0 1 1 1 0 1 3 4 6 8 10 10 10 9 8 6 5 5 4 3 5 5 5 7 7 5 6 8 7 7 5 1 0 0 -1 0 -0 -2 0 3 5 14 15 8 10 15 8 2 5 7 4 7 9 6 10 15 3 -10 -3 5 6 5 1 1 7 7 3 3 5 6 7 9 8 8 11
7 5 2 2 1 0 0 0 1 1 0 0 1 2 3 3 5 7 8 9 10 9 9 9 11 14 14 13 12 11 12 10 6 7 9 6 5 9 10 8 8 7 3 3 5 5 3 3 6 4 -0 -1 2 9 14 4 -3 8 19 12 2 4 10 9 7 8 7 4 1 -5 -4 3 7 7 5 2 5 9 5 4 8 10 10 8 4 2 4 9
4 2 -0 1 1 0 0 1 1 1 1 1 1 1 3 4 7 12 19 25 24 20 18 17 17 19 18 15 16 15 14 14 12 11 12 9 8 11 12 10 9 8 7 6 4 3 3 4 6 7 7 3 -1 4 12 4 -8 -6 6 14 9 -2 -3 5 7 5 7 8 -1 -6 5 10 8 11 7 -0 3 5 2 6 9 6 7 8 4 4 8 10
2 0 0 1 0 0 1 1 2 3 3 4 4 4 6 8 11 17 24 26 23 21 22 22 22 22 20 17 15 14 13 14 14 12 11 11 13 13 13 13 10 8 11 12 9 8 7 5 3 1 2 4 -1 0 7 7 2 -2 -5 3 15 10 -5 -7 -3 -2 2 5 -1 -2 7 10 11 13 7 -1 0 1 1 7 10 4 2 6 8 8 8 6
1 0 0 -1 -1 2 4 5 5 6 7 10 12 14 16 19 23 29 29 22 18 20 21 19 18 19 20 18 16 15 16 16 15 13 10 10 12 13 14 15 13 12 14 14 14 14 10 8 9 3 -1 -1 -2 2 10 13 13 8 -4 -2 14 20 11 1 -5 -4 -1 -2 -2 2 2 3 13 17 7 1 1 1 2 5 6 6 5 5 6 5 5 3
-0 0 2 2 2 3 6 9 10 10 13 16 19 25 28 30 34 34 28 22 20 22 22 21 19 16 15 16 17 18 19 22 25 25 21 20 18 16 16 13 9 11 15 15 14 15 14 13 11 7 3 0 -1 5 12 14 11 0 -6 4 14 15 19 17 6 3 2 -5 -4 3 2 3 14 16 10 8 6 3 5 4 -0 2 4 2 2 5 7 6
2 3 5 6 7 8 8 12 15 16 19 22 27 32 33 31 32 29 24 22 21 20 19 21 23 20 17 17 17 17 14 11 15 18 18 22 26 25 25 23 12 3 5 10 11 13 14 13 11 10 10 8 6 7 8 8 6 -3 -8 1 6 5 13 18 12 9 6 -2 -5 -4 -1 7 16 16 10 7 6 5 8 11 7 4 3 1 0 3 3 1
6 6 6 8 12 14 15 19 21 21 26 31 31 30 26 23 23 22 19 19 21 20 17 17 20 22 21 20 20 21 19 14 13 13 10 10 14 15 20 27 25 16 10 6 5 8 10 12 13 6 4 11 12 13 15 8 5 9 7 3 2 0 2 8 13 14 12 9 2 -7 -3 8 15 19 11 -3 -3 3 3 8 12 7 6 5 2 1 -1 -2
8 10 12 14 16 20 23 26 25 24 29 32 26 20 19 19 18 17 16 16 18 17 14 12 12 14 15 15 15 16 19 19 20 22 21 16 14 13 14 19 21 22 23 17 10 8 5 11 17 8 8 18 7 -1 5 -1 -2 17 18 3 6 10 3 2 11 16 16 12 0 -7 2 12 13 17 13 0 -1 -1 -5 7 18 8 2 5 4 2 4 4
Height
5883 5882 5881 5880 5880 5879 5878 5877 5876 5875 5874 5873 5872 5871 5870 5869 5868 5866 5865 5863 5862 5861 5859 5858 5856 5855 5853 5852 5850 5848 5847 5845 5844 5842 5841 5839 5838 5837 5835 5833 5832 5830 5829 5828 5826 5825 5825 5825 5825 5824 5823 5823 5823 5823 5823 5821 5822 5823 5823 5824 5825 5826 5827 5828 5828 5829 5829 5829 5830 5830 5831 5831 5831 5831 5831 5830 5829 5829 5828 5827 5828 5828 5828 5827 5828 5829 5829 5828
5882 5882 5881 5880 5879 5878 5877 5877 5876 5875 5874 5873 5872 5871 5870 5869 5867 5866 5865 5864 5862 5861 5860 5858 5857 5855 5854 5852 5850 5849 5847 5846 5844 5843 5841 5840 5838 5837 5836 5835 5833 5831 5830 5829 5827 5826 5825 5825 5826 5826 5825 5825 5824 5823 5822 5822 5822 5823 5824 5825 5826 5827 5827 5828 5828 5828 5828 5829 5829 5830 5831 5831 5830 5830 5829 5827 5827 5827 5827 5827 5827 5827 5827 5826 5826 5826 5827 5827
5882 5881 5881 5880 5879 5878 5877 5876 5875 5874 5873 5872 5871 5870 5869 5868 5867 5866 5865 5864 5862 5861 5860 5859 5857 5856 5854 5852 5851 5849 5848 5846 5845 5843 5842 5840 5839 5838 5837 5836 5834 5833 5831 5830 5828 5827 5825 5826 5827 5827 5826 5826 5825 5823 5822 5823 5824 5824 5825 5826 5827 5827 5827 5828 5828 5828 5828 5828 5829 5829 5830 5831 5830 5829 5827 5825 5825 5825 5826 5827 5827 5827 5827 5826 5825 5825 5825 5826
5881 5881 5880 5879 5879 5878 5877 5876 5875 5874 5873 5872 5871 5870 5869 5868 5867 5866 5865 5864 5862 5861 5860 5859 5857 5856 5854 5853 5851 5849 5848 5847 5845 5844 5842 5841 5840 5839 5838 5837 5835 5834 5832 5831 5829 5827 5826 5827 5828 5827 5827 5826 5825 5824 5823 5824 5825 5825 5826 5827 5828 5828 5828 5828 5828 5828 5828 5828 5829 5830 5830 5830 5829 5829 5827 5825 5824 5824 5826 5827 5828 5828 5827 5826 5825 5824 5824 5825
5881 5880 5879 5879 5878 5877 5876 5875 5874 5873 5872 5871 5870 5869 5868 5867 5866 5865 5865 5864 5862 5861 5860 5859 5858 5856 5855 5853 5851 5850 5848 5847 5845 5844 5842 5841 5841 5840 5839 5838 5836 5834 5833 5831 5830 5829 5828 5828 5828 5827 5826 5825 5825 5825 5825 5825 5825 5826 5826 5827 5828 5828 5829 5828 5828 5828 5828 5828 5830 5830 5829 5829 5829 5829 5828 5826 5824 5824 5825 5827 5828 5827 5827 5825 5824 5824 5823 5823
5880 5879 5878 5878 5877 5876 5875 5875 5874 5873 5872 5871 5869 5868 5868 5867 5866 5865 5864 5863 5862 5861 5860 5859 5858 5856 5855 5854 5852 5850 5849 5847 5846 5844 5843 5842 5842 5841 5840 5838 5836 5835 5834 5833 5831 5830 5829 5829 5829 5828 5825 5824 5824 5824 5824 5825 5826 5826 5826 5827 5827 5828 5828 5827 5827 5827 5828 5828 5830 5830 5829 5829 5829 5829 5827 5826 5825 5825 5825 5826 5826 5826 5826 5824 5823 5823 5823 5822
5879 5878 5877 5877 5876 5875 5875 5874 5873 5872 5871 5870 5869 5868 5867 5866 5865 5864 5864 5863 5862 5861 5860 5859 5858 5857 5855 5854 5853 5851 5849 5848 5847 5845 5844 5843 5843 5842 5840 5839 5837 5836 5835 5834 5833 5831 5830 5829 5830 5829 5826 5824 5823 5822 5823 5824 5826 5826 5826 5827 5827 5827 5827 5826 5826 5827 5827 5828 5829 5830 5829 5829 5829 5828 5827 5826 5826 5826 5825 5825 5825 5824 5824 5823 5822 5822 5822 5822
5877 5877 5876 5875 5875 5874 5874 5873 5872 5871 5870 5869 5868 5867 5866 5865 5865 5864 5863 5862 5862 5861 5860 5859 5858 5857 5855 5854 5853 5852 5850 5848 5847 5846 5845 5844 5843 5842 5841 5839 5838 5837 5835 5834 5834 5833 5832 5831 5831 5830 5827 5825 5823 5822 5822 5823 5825 5826 5827 5827 5826 5827 5826 5826 5826 5827 5827 5828 5829 5829 5828 5828 5828 5827 5826 5825 5825 5825 5824 5824 5823 5823 5823 5823 5821 5821 5821 5822
5876 5875 5875 5874 5874 5873 5872 5872 5871 5870 5869 5869 5868 5867 5866 5865 5864 5863 5863 5862 5861 5861 5860 5859 5858 5857 5855 5854 5853 5852 5850 5849 5847 5846 5845 5844 5843 5842 5841 5840 5838 5837 5836 5835 5834 5833 5833 5832 5832 5832 5829 5826 5824 5822 5822 5823 5824 5826 5827 5826 5826 5827 5827 5826 5826 5827 5828 5828 5829 5829 5828 5828 5828 5828 5826 5825 5824 5824 5823 5823 5823 5823 5823 5822 5821 5820 5820 5821
5874 5874 5873 5873 5872 5872 5871 5870 5870 5869 5868 5868 5867 5866 5865 5864 5863 5862 5862 5861 5861 5860 5860 5859 5858 5857 5856 5854 5852 5852 5850 5849 5847 5846 5845 5844 5843 5842 5841 5839 5838 5837 5836 5835 5834 5833 5833 5833 5833 5833 5831 5828 5825 5823 5823 5823 5825 5826 5826 5827 5827 5828 5828 5826 5826 5826 5827 5829 5830 5830 5829 5829 5828 5828 5827 5825 5824 5823 5822 5822 5822 5822 5823 5822 5821 5820 5819 5820
5873 5872 5872 5871 5871 5870 5870 5869 5868 5868 5867 5867 5866 5865 5864 5863 5863 5862 5861 5860 5860 5860 5859 5858 5858 5857 5856 5854 5852 5851 5851 5849 5848 5846 5846 5845 5843 5841 5840 5839 5838 5837 5836 5835 5835 5834 5833 5834 5834 5832 5830 5828 5827 5825 5825 5824 5825 5826 5826 5827 5827 5828 5828 5827 5826 5827 5827 5828 5829 5830 5830 5830 5829 5828 5827 5825 5824 5823 5822 5822 5822 5822 5822 5822 5821 5820 5819 5819
5872 5871 5871 5870 5869 5869 5868 5868 5867 5866 5866 5865 5865 5864 5864 5863 5862 5861 5860 5860 5859 5859 5858 5858 5857 5856 5855 5855 5853 5851 5850 5849 5849 5847 5846 5845 5843 5841 5840 5839 5838 5837 5836 5835 5835 5834 5834 5834 5834 5832 5831 5829 5828 5828 5826 5826 5826 5826 5826 5826 5827 5828 5828 5828 5827 5827 5827 5827 5829 5829 5830 5830 5829 5829 5828 5825 5824 5823 5822 5821 5821 5821 5821 5821 5821 5821 5820 5819
5871 5870 5870 5869 5868 5867 5867 5866 5866 5865 5865 5864 5864 5863 5863 5862 5861 5860 5859 5859 5858 5858 5858 5857 5856 5855 5855 5854 5853 5852 5850 5849 5848 5847 5846 5845 5843 5842 5840 5839 5838 5837 5837 5836 5835 5834 5834 5834 5834 5833 5832 5830 5830 5830 5829 5828 5827 5827 5826 5826 5828 5829 5829 5829 5829 5827 5827 5827 5828 5828 5829 5830 5829 5828 5828 5825 5823 5822 5821 5821 5821 5821 5821 5821 5821 5821 5821 5820
5869 5869 5869 5868 5867 5866 5866 5865 5864 5864 5863 5863 5862 5862 5862 5861 5860 5859 5859 5858 5857 5857 5857 5857 5856 5855 5854 5853 5852 5851 5850 5849 5847 5846 5846 5845 5843 5842 5840 5839 5839 5838 5837 5835 5834 5834 5834 5834 5834 5833 5832 5831 5831 5831 5830 5830 5829 5829 5828 5827 5827 5829 5829 5830 5829 5828 5827 5827 5828 5828 5829 5829 5828 5828 5827 5825 5823 5822 5821 5820 5820 5820 5820 5821 5821 5821 5821 5820
5868 5867 5867 5867 5866 5865 5864 5864 5863 5862 5862 5861 5861 5861 5860 5860 5859 5858 5857 5857 5856 5856 5856 5856 5855 5854 5853 5852 5851 5851 5850 5849 5847 5846 5845 5844 5842 5841 5840 5839 5838 5838 5836 5835 5834 5834 5834 5834 5834 5833 5833 5832 5831 5831 5830 5830 5830 5829 5829 5828 5827 5827 5828 5829 5829 5829 5827 5827 5827 5827 5827 5827 5827 5827 5827 5825 5823 5822 5822 5820 5819 5819 5820 5821 5821 5821 5821 5820
5866 5866 5865 5865 5865 5864 5863 5862 5861 5861 5861 5860 5860 5859 5858 5858 5857 5856 5856 5855 5855 5855 5855 5855 5854 5854 5853 5852 5851 5850 5849 5848 5847 5846 5845 5844 5842 5841 5840 5839 5838 5838 5836 5836 5835 5834 5833 5833 5833 5833 5833 5832 5831 5831 5830 5829 5829 5828 5827 5827 5827 5827 5827 5827 5828 5828 5826 5826 5826 5826 5826 5826 5826 5826 5826 5825 5823 5822 5822 5821 5819 5819 5820 5820 5821 5822 5821 5820
5865 5864 5864 5863 5863 5863 5862 5861 5860 5859 5859 5859 5858 5857 5856 5856 5856 5855 5854 5854 5853 5854 5854 5854 5853 5853 5853 5852 5850 5849 5848 5847 5847 5846 5845 5843 5842 5841 5840 5839 5838 5837 5836 5836 5835 5834 5833 5832 5832 5832 5832 5832 5832 5831 5830 5830 5829 5827 5826 5825 5826 5827 5827 5826 5826 5826 5825 5825 5825 5825 5825 5826 5825 5825 5825 5824 5823 5822 5823 5822 5820 5819 5820 5821 5821 5821 5821 5820
5863 5863 5862 5861 5861 5861 5860 5860 5859 5858 5858 5858 5857 5856 5855 5854 5855 5854 5852 5852 5852 5852 5852 5852 5852 5852 5852 5851 5850 5848 5847 5846 5846 5845 5844 5843 5842 5840 5839 5839 5838 5837 5836 5835 5835 5834 5833 5832 5831 5831 5831 5830 5831 5831 5830 5829 5828 5827 5825 5823 5824 5826 5826 5826 5826 5825 5825 5824 5824 5824 5824 5824 5824 5824 5824 5823 5822 5822 5823 5822 5821 5820 5821 5822 5821 5820 5819 5819
5860 5860 5860 5859 5859 5858 5858 5858 5857 5856 5855 5856 5856 5855 5853 5852 5853 5853 5851 5850 5850 5850 5850 5851 5850 5850 5850 5850 5849 5847 5846 5846 5845 5843 5843 5842 5841 5840 5839 5838 5837 5836 5836 5835 5835 5833 5832 5831 5831 5830 5830 5829 5829 5829 5829 5829 5828 5827 5825 5823 5823 5825 5826 5826 5826 5825 5825 5824 5824 5823 5823 5823 5823 5823 5823 5822 5821 5821 5822 5822 5822 5821 5822 5822 5821 5819 5818 5817
5857 5858 5858 5857 5856 5856 5855 5855 5855 5854 5853 5854 5855 5854 5852 5850 5850 5851 5850 5848 5848 5848 5847 5848 5849 5848 5847 5848 5848 5846 5846 5845 5844 5843 5843 5841 5840 5839 5838 5838 5837 5836 5835 5835 5834 5833 5831 5831 5831 5830 5829 5829 5828 5828 5829 5828 5828 5827 5825 5823 5823 5825 5826 5826 5825 5825 5824 5824 5824 5824 5824 5824 5822 5822 5822 5821 5820 5820 5821 5822 5822 5822 5822 5822 5821 5818 5817 5816
5854 5855 5855 5854 5854 5853 5853 5852 5852 5851 5851 5851 5852 5852 5851 5849 5848 5849 5849 5847 5845 5846 5846 5845 5846 5846 5844 5844 5845 5845 5845 5843 5843 5842 5842 5841 5839 5838 5837 5837 5836 5836 5835 5834 5833 5832 5831 5830 5830 5830 5829 5828 5828 5828 5828 5827 5827 5827 5825 5823 5824 5825 5826 5826 5825 5824 5823 5823 5824 5824 5825 5824 5822 5821 5820 5819 5819 5819 5820 5821 5821 5821 5821 5821 5820 5818 5816 5815
5851 5851 5851 5851 5851 5850 5850 5849 5848 5848 5848 5849 5849 5849 5848 5846 5845 5845 5847 5847 5843 5842 5844 5844 5844 5844 5843 5841 5842 5843 5843 5842 5841 5840 5840 5839 5838 5837 5836 5835 5835 5835 5834 5833 5832 5831 5830 5830 5829 5829 5829 5828 5827 5827 5827 5826 5825 5825 5824 5824 5824 5824 5825 5825 5825 5823 5822 5822 5823 5823 5823 5823 5821 5819 5818 5818 5818 5818 5819 5819 5820 5821 5821 5820 5819 5817 5816 5815
5847 5848 5848 5847 5847 5847 5846 5846 5845 5845 5845 5846 5846 5846 5844 5843 5842 5841 5843 5846 5845 5840 5839 5841 5842 5842 5841 5839 5839 5839 5840 5839 5839 5838 5837 5836 5835 5836 5835 5834 5833 5833 5832 5832 5831 5831 5830 5829 5829 5829 5828 5827 5826 5826 5825 5824 5823 5823 5823 5824 5824 5824 5824 5825 5825 5823 5821 5821 5822 5821 5820 5820 5819 5818 5817 5817 5817 5817 5817 5818 5818 5819 5819 5819 5818 5816 5815 5814
5843 5843 5843 5843 5843 5842 5842 5842 5841 5841 5842 5842 5842 5841 5840 5839 5838 5838 5838 5840 5844 5842 5837 5837 5839 5839 5839 5838 5837 5837 5837 5836 5835 5835 5835 5833 5832 5833 5833 5832 5832 5831 5830 5830 5830 5830 5829 5829 5828 5828 5827 5826 5825 5825 5824 5823 5822 5822 5822 5823 5824 5823 5823 5823 5823 5821 5820 5820 5820 5819 5817 5817 5817 5816 5816 5816 5815 5815 5815 5815 5816 5817 5817 5818 5817 5815 5814 5814
5838 5838 5839 5839 5838 5838 5838 5838 5838 5838 5838 5839 5838 5837 5836 5835 5835 5835 5834 5834 5838 5840 5837 5836 5836 5835 5835 5835 5834 5834 5834 5833 5832 5832 5832 5831 5830 5830 5830 5830 5829 5829 5828 5828 5828 5828 5828 5827 5827 5826 5826 5825 5824 5823 5822 5822 5821 5821 5821 5821 5822 5822 5821 5821 5820 5819 5818 5818 5818 5817 5815 5815 5815 5814 5814 5814 5812 5812 5813 5813 5814 5815 5816 5816 5815 5814 5814 5813
5834 5834 5834 5834 5834 5834 5834 5834 5834 5834 5834 5835 5834 5832 5831 5832 5832 5831 5829 5828 5831 5835 5835 5835 5834 5833 5832 5832 5831 5831 5830 5830 5829 5828 5829 5829 5828 5827 5827 5828 5827 5826 5826 5826 5826 5826 5825 5825 5825 5825 5824 5823 5822 5821 5821 5820 5820 5820 5820 5820 5820 5819 5819 5819 5818 5817 5817 5817 5817 5816 5814 5813 5813 5813 5812 5811 5810 5810 5811 5811 5812 5813 5814 5815 5814 5814 5814 5814
5830 5829 5829 5829 5830 5829 5829 5829 5829 5830 5830 5830 5829 5828 5827 5828 5828 5826 5825 5823 5825 5829 5830 5831 5831 5831 5830 5829 5829 5829 5828 5827 5827 5826 5825 5826 5826 5825 5824 5825 5825 5824 5823 5823 5824 5824 5823 5824 5823 5823 5822 5821 5820 5819 5819 5818 5818 5819 5819 5818 5818 5818 5817 5817 5817 5816 5816 5815 5816 5816 5814 5812 5811 5812 5811 5809 5809 5809 5809 5809 5810 5811 5812 5813 5813 5813 5814 5813
5825 5825 5824 5824 5825 5825 5824 5824 5825 5825 5826 5826 5825 5824 5824 5824 5823 5822 5821 5818 5820 5825 5826 5826 5826 5827 5827 5825 5826 5826 5825 5825 5824 5822 5822 5823 5823 5823 5822 5822 5821 5821 5820 5820 5822 5822 5821 5822 5821 5820 5819 5819 5819 5818 5817 5816 5816 5818 5817 5816 5816 5816 5816 5815 5815 5814 5814 5813 5814 5815 5814 5810 5809 5810 5810 5808 5807 5807 5807 5808 5808 5809 5810 5811 5811 5811 5812 5812
5820 5820 5820 5820 5820 5820 5820 5819 5820 5820 5821 5821 5821 5820 5820 5820 5818 5817 5815 5814 5817 5821 5821 5821 5822 5822 5822 5821 5821 5822 5821 5821 5820 5819 5818 5819 5819 5820 5820 5819 5817 5817 5817 5816 5818 5819 5818 5818 5817 5817 5817 5817 5817 5816 5815 5815 5815 5816 5815 5814 5814 5813 5813 5813 5812 5812 5812 5811 5812 5814 5812 5809 5808 5809 5808 5807 5805 5805 5805 5806 5806 5807 5808 5808 5808 5809 5810 5810
5815 5815 5815 5815 5815 5815 5815 5815 5815 5815 5816 5816 5815 5815 5815 5814 5814 5812 5809 5811 5816 5817 5816 5816 5817 5817 5816 5816 5816 5816 5816 5817 5816 5815 5814 5815 5815 5815 5817 5816 5814 5814 5813 5812 5814 5815 5815 5814 5813 5814 5815 5814 5814 5814 5814 5813 5813 5813 5812 5811 5812 5811 5811 5811 5810 5810 5809 5810 5811 5812 5810 5807 5806 5807 5806 5805 5804 5803 5803 5804 5804 5805 5806 5806 5806 5807 5808 5808
5810 5810 5810 5810 5810 5810 5810 5810 5810 5810 5810 5810 5810 5810 5810 5809 5808 5805 5805 5809 5812 5812 5811 5811 5811 5811 5811 5810 5810 5810 5811 5812 5812 5811 5810 5810 5810 5810 5812 5813 5811 5810 5810 5809 5810 5811 5810 5810 5810 5810 5811 5811 5810 5810 5811 5811 5811 5810 5809 5809 5809 5809 5809 5809 5808 5808 5807 5808 5809 5809 5808 5805 5804 5805 5804 5802 5802 5801 5801 5802 5802 5803 5804 5804 5804 5805 5806 5806
5805 5805 5805 5805 5805 5804 5804 5804 5805 5805 5805 5805 5805 5805 5804 5802 5800 5800 5803 5807 5807 5806 5806 5805 5805 5805 5804 5804 5804 5805 5806 5807 5807 5807 5806 5806 5805 5805 5806 5808 5807 5806 5806 5806 5806 5805 5805 5807 5807 5807 5807 5807 5806 5807 5808 5808 5808 5808 5807 5807 5806 5806 5806 5806 5806 5806 5805 5806 5808 5807 5805 5802 5802 5803 5801 5800 5800 5799 5798 5799 5800 5801 5802 5802 5803 5803 5804 5805
5800 5800 5800 5800 5800 5799 5798 5799 5800 5799 5800 5800 5799 5799 5798 5795 5794 5798 5802 5802 5800 5801 5801 5799 5799 5800 5798 5798 5799 5800 5801 5802 5803 5803 5802 5801 5800 5800 5800 5802 5803 5803 5802 5802 5801 5800 5800 5802 5803 5803 5803 5803 5803 5803 5805 5805 5805 5805 5805 5803 5802 5803 5802 5802 5803 5803 5803 5804 5805 5804 5801 5798 5799 5800 5799 5799 5799 5798 5797 5797 5798 5799 5800 5800 5801 5801 5803 5804
5794 5794 5793 5793 5793 5793 5792 5793 5794 5794 5794 5793 5793 5793 5791 5789 5792 5796 5797 5796 5795 5795 5794 5793 5793 5794 5794 5794 5794 5794 5795 5796 5797 5797 5797 5796 5795 5796 5796 5796 5797 5798 5798 5797 5796 5796 5795 5796 5800 5799 5798 5799 5798 5798 5801 5802 5801 5801 5801 5800 5798 5799 5799 5798 5799 5800 5800 5801 5801 5801 5798 5796 5796 5797 5797 5797 5796 5796 5796 5796 5796 5797 5798 5798 5799 5800 5801 5802
5788 5788 5787 5786 5786 5786 5787 5787 5788 5788 5787 5787 5787 5786 5785 5786 5789 5790 5790 5790 5789 5788 5788 5788 5787 5788 5789 5790 5790 5789 5789 5789 5790 5790 5790 5790 5790 5791 5792 5792 5791 5792 5793 5792 5792 5793 5791 5792 5796 5795 5793 5794 5793 5793 5796 5796 5796 5796 5797 5795 5794 5796 5797 5795 5795 5797 5797 5795 5796 5797 5795 5794 5794 5794 5794 5795 5794 5794 5794 5794 5795 5796 5796 5797 5797 5798 5799 5800
5782 5781 5781 5780 5779 5780 5781 5782 5782 5782 5782 5781 5780 5780 5781 5783 5784 5783 5783 5783 5782 5781 5782 5783 5782 5782 5784 5785 5786 5785 5783 5783 5784 5784 5783 5784 5783 5784 5786 5787 5787 5787 5787 5787 5788 5788 5786 5788 5791 5790 5789 5790 5789 5789 5791 5790 5791 5793 5792 5791 5792 5794 5793 5791 5790 5792 5793 5790 5790 5793 5793 5792 5792 5790 5791 5792 5793 5793 5792 5792 5793 5793 5794 5795 5795 5795 5796 5797
5776 5775 5773 5773 5774 5774 5775 5776 5776 5775 5775 5774 5774 5775 5777 5779 5778 5777 5777 5777 5775 5774 5774 5775 5776 5776 5777 5779 5781 5781 5779 5779 5779 5779 5779 5779 5778 5779 5780 5781 5782 5781 5781 5782 5782 5781 5781 5781 5784 5786 5786 5786 5786 5785 5785 5785 5787 5788 5787 5789 5791 5789 5788 5787 5786 5787 5787 5785 5786 5789 5790 5790 5789 5787 5788 5790 5791 5791 5791 5791 5791 5791 5791 5792 5792 5793 5793 5794
5770 5768 5766 5767 5769 5768 5769 5770 5770 5769 5769 5768 5769 5770 5772 5772 5772 5772 5771 5770 5769 5767 5767 5768 5769 5770 5771 5771 5774 5776 5775 5775 5776 5775 5774 5775 5775 5776 5776 5776 5776 5776 5776 5776 5775 5775 5775 5773 5776 5780 5782 5782 5782 5780 5779 5780 5782 5783 5785 5786 5786 5784 5783 5783 5782 5782 5783 5782 5782 5785 5786 5786 5786 5785 5785 5787 5789 5790 5790 5790 5789 5789 5789 5789 5790 5790 5790 5791
5764 5761 5760 5762 5763 5762 5763 5763 5764 5764 5763 5763 5764 5765 5766 5766 5767 5765 5764 5763 5763 5762 5762 5763 5763 5764 5765 5764 5766 5769 5768 5768 5770 5770 5769 5770 5772 5772 5773 5772 5770 5770 5770 5769 5768 5769 5769 5767 5767 5771 5775 5778 5776 5774 5774 5776 5777 5779 5781 5781 5780 5779 5779 5779 5778 5778 5779 5779 5778 5780 5781 5781 5783 5784 5783 5784 5786 5787 5787 5787 5787 5787 5787 5788 5788 5789 5789 5789
5758 5755 5754 5756 5757 5757 5757 5757 5758 5758 5758 5758 5759 5759 5760 5760 5760 5759 5757 5757 5756 5755 5756 5757 5757 5757 5759 5759 5759 5761 5761 5761 5763 5763 5763 5765 5766 5768 5767 5765 5764 5763 5763 5763 5763 5762 5762 5761 5760 5763 5766 5768 5769 5770 5771 5773 5773 5774 5774 5775 5776 5776 5776 5775 5775 5774 5774 5775 5775 5775 5775 5777 5781 5781 5781 5782 5783 5783 5783 5784 5785 5785 5785 5786 5787 5787 5787 5787
5751 5748 5747 5749 5750 5751 5751 5751 5751 5752 5752 5753 5753 5754 5754 5753 5754 5754 5752 5750 5749 5749 5749 5750 5750 5750 5752 5753 5753 5753 5753 5754 5756 5756 5757 5759 5761 5762 5759 5755 5756 5757 5757 5757 5756 5755 5756 5756 5755 5757 5758 5758 5761 5767 5769 5769 5769 5770 5769 5769 5771 5773 5772 5771 5770 5770 5770 5770 5771 5771 5770 5772 5777 5778 5777 5778 5779 5779 5780 5780 5781 5782 5782 5783 5784 5784 5784 5784
5744 5741 5740 5742 5743 5744 5745 5745 5745 5745 5746 5746 5746 5747 5747 5746 5748 5748 5745 5743 5742 5742 5742 5742 5743 5742 5742 5744 5746 5746 5744 5746 5749 5749 5750 5753 5754 5751 5748 5747 5748 5749 5750 5750 5749 5749 5750 5751 5751 5752 5753 5753 5754 5757 5761 5764 5764 5765 5764 5765 5766 5767 5768 5767 5766 5767 5768 5766 5767 5767 5766 5768 5772 5774 5774 5774 5775 5775 5775 5776 5777 5778 5778 5779 5780 5781 5782 5782
5737 5734 5732 5733 5735 5737 5738 5738 5738 5738 5738 5738 5738 5739 5739 5739 5740 5740 5737 5735 5734 5734 5734 5734 5735 5734 5733 5734 5736 5736 5736 5737 5741 5742 5742 5745 5745 5741 5740 5741 5742 5742 5743 5744 5743 5744 5744 5745 5745 5746 5748 5750 5750 5749 5752 5756 5758 5758 5759 5760 5761 5760 5762 5763 5763 5765 5764 5762 5763 5762 5760 5762 5768 5770 5770 5770 5770 5771 5771 5772 5773 5773 5773 5773 5774 5776 5778 5779
5730 5728 5724 5724 5727 5729 5729 5730 5730 5730 5731 5730 5730 5732 5732 5731 5731 5731 5728 5726 5725 5724 5724 5725 5725 5724 5723 5724 5726 5727 5727 5728 5731 5733 5733 5735 5736 5734 5733 5734 5735 5735 5737 5737 5737 5738 5739 5738 5739 5740 5742 5745 5747 5747 5746 5748 5752 5754 5754 5755 5756 5756 5757 5758 5759 5759 5757 5757 5760 5758 5755 5757 5762 5765 5766 5765 5766 5767 5767 5768 5768 5768 5768 5768 5769 5771 5772 5774
5722 5721 5717 5716 5719 5720 5720 5721 5720 5720 5722 5722 5722 5724 5723 5721 5722 5720 5718 5717 5715 5713 5714 5715 5715 5714 5713 5714 5715 5717 5717 5717 5720 5722 5723 5724 5727 5728 5726 5724 5725 5727 5730 5730 5730 5732 5732 5731 5732 5733 5735 5738 5741 5743 5743 5743 5745 5747 5749 5749 5750 5752 5752 5752 5753 5752 5750 5751 5755 5754 5753 5754 5756 5760 5763 5762 5761 5763 5763 5764 5764 5764 5763 5764 5764 5766 5767 5768
5714 5713 5710 5708 5709 5711 5710 5710 5709 5710 5711 5711 5711 5714 5712 5710 5711 5709 5707 5707 5705 5703 5703 5704 5705 5704 5703 5703 5704 5706 5707 5707 5708 5709 5710 5713 5718 5721 5719 5715 5714 5718 5722 5722 5723 5725 5725 5725 5727 5726 5725 5729 5733 5735 5737 5737 5736 5737 5741 5744 5744 5745 5746 5745 5746 5745 5744 5746 5748 5749 5751 5752 5752 5755 5759 5758 5757 5758 5759 5760 5761 5760 5760 5760 5761 5762 5763 5764
5706 5704 5702 5701 5700 5700 5700 5700 5698 5699 5700 5699 5700 5703 5701 5699 5700 5700 5697 5695 5693 5693 5693 5693 5695 5694 5692 5693 5693 5694 5696 5697 5696 5696 5697 5702 5707 5710 5711 5708 5705 5708 5712 5713 5715 5717 5717 5718 5719 5717 5717 5721 5725 5727 5728 5728 5728 5729 5732 5735 5737 5738 5738 5738 5738 5739 5740 5740 5740 5744 5748 5749 5748 5751 5754 5754 5753 5754 5754 5755 5756 5756 5756 5756 5757 5758 5759 5761
5697 5694 5693 5693 5692 5690 5689 5689 5688 5688 5689 5688 5688 5691 5690 5688 5689 5690 5688 5684 5683 5684 5683 5683 5685 5683 5681 5682 5682 5683 5686 5686 5685 5685 5687 5691 5695 5698 5702 5701 5697 5698 5702 5702 5705 5708 5708 5709 5710 5708 5709 5714 5716 5718 5719 5719 5720 5721 5723 5727 5730 5731 5731 5731 5732 5733 5734 5733 5734 5739 5743 5745 5746 5747 5748 5749 5750 5750 5749 5750 5751 5751 5751 5752 5752 5753 5754 5756
5687 5685 5682 5683 5685 5682 5678 5678 5677 5678 5679 5677 5676 5678 5677 5677 5679 5678 5676 5675 5675 5675 5673 5672 5675 5673 5670 5672 5673 5674 5676 5676 5675 5678 5679 5681 5684 5687 5690 5691 5690 5692 5693 5692 5695 5698 5698 5700 5701 5699 5701 5706 5708 5709 5710 5710 5710 5712 5716 5719 5723 5724 5724 5725 5726 5727 5728 5728 5730 5733 5736 5739 5742 5743 5742 5744 5746 5747 5746 5746 5746 5746 5746 5747 5747 5748 5749 5750
5676 5675 5673 5672 5674 5674 5670 5668 5666 5667 5669 5667 5665 5667 5666 5666 5668 5667 5665 5667 5668 5668 5665 5663 5665 5666 5664 5665 5666 5666 5667 5666 5667 5671 5672 5672 5674 5677 5678 5679 5681 5684 5686 5686 5686 5688 5688 5690 5692 5690 5690 5696 5700 5699 5700 5700 5699 5702 5707 5711 5715 5717 5717 5718 5719 5721 5721 5722 5725 5727 5729 5733 5736 5737 5738 5739 5740 5742 5743 5742 5742 5742 5742 5742 5742 5742 5743 5744
5664 5664 5664 5662 5663 5663 5661 5659 5656 5656 5659 5658 5656 5656 5657 5657 5658 5657 5657 5659 5660 5661 5659 5656 5657 5659 5659 5660 5660 5658 5659 5660 5660 5663 5664 5664 5666 5669 5669 5670 5672 5672 5676 5680 5679 5679 5680 5680 5682 5681 5678 5684 5691 5689 5687 5690 5689 5690 5697 5704 5709 5710 5710 5711 5712 5713 5715 5717 5719 5721 5724 5727 5730 5731 5733 5734 5734 5736 5738 5738 5738 5738 5738 5737 5738 5738 5738 5740
5653 5653 5653 5653 5654 5654 5652 5651 5648 5647 5649 5649 5647 5647 5649 5650 5651 5649 5650 5654 5654 5653 5652 5650 5651 5653 5655 5655 5654 5652 5653 5654 5654 5655 5657 5658 5659 5661 5662 5663 5665 5664 5666 5671 5672 5673 5674 5672 5673 5672 5666 5671 5681 5678 5676 5678 5675 5678 5690 5698 5699 5700 5702 5704 5705 5706 5708 5710 5711 5713 5718 5722 5723 5724 5727 5729 5729 5730 5732 5733 5733 5734 5734 5733 5734 5734 5734 5735